When you browse on this site, cookies collect data to enhance your experience and personalize the content and advertising you see.
Visit our Privacy Policy to learn more. By continuing to use the site, you agree to this use of cookies and data.
  • In Schweiz
  • Länderverzeichnis
  • Für 7 Tage
  • Wassertemperatur
  • Satellitenkarten
  • Wetterkarte
  • Widgets
  • user-avatar
    Anmelden

    Stündliche Wetter Serdyuky

    Heute, 18 Februar, Montag

    Zeit Temperatur Niederschläge Wind Luftdruck Luftfeuchtigkeit
    00:00 +3°C° 0 mm 3 m/S 749 mmHg 87%
    01:00 +3°C° 0 mm 3 m/S 749 mmHg 90%
    02:00 +3°C° 0 mm 2 m/S 749 mmHg 93%
    03:00 +3°C° 0 mm 2 m/S 750 mmHg 94%
    04:00 +2°C° 0 mm 2 m/S 750 mmHg 95%
    05:00 +1°C° 0 mm 2 m/S 750 mmHg 97%
    06:00 +2°C° 0 mm 1 m/S 750 mmHg 96%
    07:00 +1°C° 0 mm 1 m/S 750 mmHg 95%
    08:00 +1°C° 0 mm 1 m/S 751 mmHg 95%
    09:00 +2°C° 0 mm 1 m/S 751 mmHg 83%
    10:00 +4°C° 0 mm 1 m/S 751 mmHg 72%
    11:00 +5°C° 0 mm 1 m/S 751 mmHg 61%
    12:00 +6°C° 0 mm 1 m/S 751 mmHg 55%
    13:00 +6°C° 0 mm 1 m/S 751 mmHg 50%
    14:00 +7°C° 0 mm 1 m/S 751 mmHg 44%
    15:00 +6°C° 0 mm 1 m/S 751 mmHg 47%
    16:00 +6°C° 0 mm 1 m/S 751 mmHg 49%
    17:00 +5°C° 0 mm 1 m/S 751 mmHg 52%
    18:00 +4°C° 0 mm 1 m/S 751 mmHg 55%
    19:00 +4°C° 0 mm 1 m/S 751 mmHg 58%
    20:00 +3°C° 0 mm 1 m/S 751 mmHg 61%
    21:00 +2°C° 0 mm 1 m/S 751 mmHg 63%
    22:00 +1°C° 0 mm 2 m/S 751 mmHg 66%
    23:00 -1°C° 0 mm 2 m/S 751 mmHg 68%

    Morgen, 19 Februar, Dienstag

    Zeit Temperatur Niederschläge Wind Luftdruck Luftfeuchtigkeit
    00:00 -1°C° 0 mm 2 m/S 751 mmHg 68%
    01:00 -1°C° 0 mm 2 m/S 751 mmHg 69%
    02:00 -1°C° 0 mm 2 m/S 751 mmHg 70%
    03:00 -1°C° 0 mm 2 m/S 751 mmHg 71%
    04:00 -1°C° 0 mm 2 m/S 751 mmHg 71%
    05:00 -1°C° 0 mm 2 m/S 750 mmHg 72%
    06:00 -1°C° 0 mm 3 m/S 750 mmHg 74%
    07:00 -1°C° 0 mm 3 m/S 750 mmHg 75%
    08:00 -1°C° 0 mm 3 m/S 750 mmHg 77%
    09:00 +1°C° 0 mm 3 m/S 749 mmHg 74%
    10:00 +1°C° 0 mm 4 m/S 749 mmHg 71%
    11:00 +4°C° 0 mm 4 m/S 749 mmHg 68%
    12:00 +4°C° 0 mm 4 m/S 748 mmHg 67%
    13:00 +5°C° 0 mm 4 m/S 748 mmHg 66%
    14:00 +6°C° 0 mm 4 m/S 747 mmHg 65%
    15:00 +6°C° 0 mm 4 m/S 747 mmHg 69%
    16:00 +5°C° 0 mm 4 m/S 746 mmHg 73%
    17:00 +4°C° 0 mm 3 m/S 746 mmHg 77%
    18:00 +4°C° 0 mm 3 m/S 745 mmHg 80%
    19:00 +3°C° 0 mm 4 m/S 745 mmHg 83%
    20:00 +3°C° 0 mm 4 m/S 745 mmHg 86%
    21:00 +1°C° 0 mm 4 m/S 745 mmHg 88%
    22:00 +1°C° 0 mm 4 m/S 744 mmHg 89%
    23:00 +1°C° 0 mm 4 m/S 744 mmHg 90%

    übermorgen, 20 Februar, Mittwoch

    Zeit Temperatur Niederschläge Wind Luftdruck Luftfeuchtigkeit
    00:00 +1°C° 0 mm 4 m/S 744 mmHg 90%
    01:00 +1°C° 0 mm 3 m/S 744 mmHg 90%
    02:00 +1°C° 0 mm 3 m/S 743 mmHg 90%
    03:00 +1°C° 0 mm 3 m/S 743 mmHg 90%
    04:00 +1°C° 0 mm 3 m/S 743 mmHg 91%
    05:00 0°C° 0 mm 3 m/S 742 mmHg 91%
    06:00 0°C° 0 mm 3 m/S 743 mmHg 92%
    07:00 0°C° 0 mm 3 m/S 743 mmHg 93%
    08:00 0°C° 0 mm 3 m/S 743 mmHg 93%
    09:00 +1°C° 0 mm 4 m/S 743 mmHg 88%
    10:00 +3°C° 0 mm 4 m/S 743 mmHg 83%
    11:00 +5°C° 0 mm 4 m/S 744 mmHg 77%
    12:00 +5°C° 0 mm 4 m/S 744 mmHg 70%
    13:00 +6°C° 0 mm 5 m/S 744 mmHg 63%
    14:00 +7°C° 0 mm 5 m/S 744 mmHg 56%
    15:00 +6°C° 0 mm 5 m/S 744 mmHg 60%
    16:00 +6°C° 0 mm 4 m/S 744 mmHg 63%
    17:00 +5°C° 0 mm 4 m/S 744 mmHg 66%
    18:00 +4°C° 0 mm 4 m/S 744 mmHg 68%
    19:00 +4°C° 0 mm 4 m/S 745 mmHg 71%
    20:00 +3°C° 0 mm 4 m/S 745 mmHg 73%
    21:00 +3°C° 0 mm 4 m/S 745 mmHg 75%
    22:00 +2°C° 0 mm 5 m/S 745 mmHg 78%
    23:00 +2°C° 0 mm 5 m/S 745 mmHg 81%

    21 Februar, Donnerstag

    Zeit Temperatur Niederschläge Wind Luftdruck Luftfeuchtigkeit
    00:00 +1°C° 0 mm 5 m/S 745 mmHg 83%
    01:00 +1°C° 0 mm 4 m/S 745 mmHg 84%
    02:00 +1°C° 0 mm 4 m/S 745 mmHg 86%
    03:00 +1°C° 0 mm 5 m/S 745 mmHg 86%
    04:00 +1°C° 0 mm 5 m/S 745 mmHg 85%
    05:00 +1°C° 0 mm 5 m/S 745 mmHg 84%
    06:00 +1°C° 0.1 mm 5 m/S 745 mmHg 84%
    07:00 +1°C° 0.1 mm 5 m/S 746 mmHg 84%
    08:00 +1°C° 0.1 mm 5 m/S 746 mmHg 83%
    09:00 +1°C° 0 mm 5 m/S 746 mmHg 79%
    10:00 +2°C° 0 mm 5 m/S 746 mmHg 76%
    11:00 +3°C° 0 mm 6 m/S 746 mmHg 72%
    12:00 +3°C° 0.2 mm 5 m/S 746 mmHg 75%
    13:00 +3°C° 0.2 mm 5 m/S 746 mmHg 78%
    14:00 +3°C° 0.2 mm 5 m/S 746 mmHg 81%
    15:00 +3°C° 0.2 mm 5 m/S 746 mmHg 82%
    16:00 +4°C° 0.2 mm 4 m/S 746 mmHg 84%
    17:00 +4°C° 0.2 mm 4 m/S 746 mmHg 86%
    18:00 +3°C° 0.3 mm 4 m/S 747 mmHg 83%
    19:00 +1°C° 0.3 mm 4 m/S 747 mmHg 79%
    20:00 +1°C° 0.3 mm 4 m/S 748 mmHg 76%
    21:00 +1°C° 0 mm 3 m/S 748 mmHg 73%
    22:00 -1°C° 0 mm 3 m/S 749 mmHg 69%
    23:00 -2°C° 0 mm 2 m/S 749 mmHg 66%

    22 Februar, Freitag

    Zeit Temperatur Niederschläge Wind Luftdruck Luftfeuchtigkeit
    00:00 -2°C° 0 mm 2 m/S 750 mmHg 65%
    01:00 -3°C° 0 mm 2 m/S 750 mmHg 63%
    02:00 -3°C° 0 mm 2 m/S 751 mmHg 62%
    03:00 -3°C° 0 mm 2 m/S 751 mmHg 60%
    04:00 -4°C° 0 mm 3 m/S 751 mmHg 58%
    05:00 -4°C° 0 mm 3 m/S 752 mmHg 56%
    06:00 -4°C° 0 mm 3 m/S 752 mmHg 56%
    07:00 -4°C° 0 mm 3 m/S 753 mmHg 55%
    08:00 -5°C° 0 mm 4 m/S 753 mmHg 55%
    09:00 -4°C° 0 mm 4 m/S 754 mmHg 52%
    10:00 -4°C° 0 mm 4 m/S 754 mmHg 49%
    11:00 -3°C° 0 mm 4 m/S 755 mmHg 46%
    12:00 -3°C° 0 mm 4 m/S 755 mmHg 44%
    13:00 -4°C° 0 mm 5 m/S 755 mmHg 43%
    14:00 -4°C° 0 mm 5 m/S 756 mmHg 41%
    15:00 -4°C° 0 mm 5 m/S 756 mmHg 40%
    16:00 -5°C° 0 mm 5 m/S 757 mmHg 40%
    17:00 -5°C° 0 mm 4 m/S 757 mmHg 39%
    18:00 -5°C° 0 mm 4 m/S 758 mmHg 40%
    19:00 -7°C° 0 mm 4 m/S 758 mmHg 41%
    20:00 -7°C° 0 mm 5 m/S 759 mmHg 42%
    21:00 -7°C° 0 mm 4 m/S 760 mmHg 43%
    22:00 -8°C° 0 mm 4 m/S 760 mmHg 43%
    23:00 -8°C° 0 mm 4 m/S 760 mmHg 44%

    23 Februar, Samstag

    Zeit Temperatur Niederschläge Wind Luftdruck Luftfeuchtigkeit
    00:00 -8°C° 0 mm 4 m/S 761 mmHg 45%
    01:00 -7°C° 0 mm 3 m/S 761 mmHg 46%
    02:00 -7°C° 0 mm 3 m/S 761 mmHg 46%
    03:00 -8°C° 0 mm 3 m/S 761 mmHg 47%
    04:00 -8°C° 0 mm 3 m/S 761 mmHg 48%
    05:00 -8°C° 0 mm 3 m/S 762 mmHg 49%
    06:00 -8°C° 0 mm 3 m/S 762 mmHg 50%
    07:00 -8°C° 0 mm 3 m/S 762 mmHg 50%
    08:00 -8°C° 0 mm 3 m/S 762 mmHg 50%
    09:00 -7°C° 0 mm 3 m/S 762 mmHg 46%
    10:00 -6°C° 0 mm 3 m/S 762 mmHg 42%
    11:00 -4°C° 0 mm 2 m/S 762 mmHg 38%
    12:00 -5°C° 0 mm 3 m/S 762 mmHg 35%
    13:00 -4°C° 0 mm 3 m/S 762 mmHg 32%
    14:00 -2°C° 0 mm 3 m/S 761 mmHg 29%
    15:00 -2°C° 0 mm 2 m/S 761 mmHg 29%
    16:00 -2°C° 0 mm 2 m/S 760 mmHg 29%
    17:00 -2°C° 0 mm 2 m/S 760 mmHg 29%
    18:00 -3°C° 0 mm 2 m/S 760 mmHg 35%
    19:00 -3°C° 0 mm 2 m/S 760 mmHg 42%
    20:00 -3°C° 0 mm 2 m/S 760 mmHg 49%
    21:00 -3°C° 0 mm 2 m/S 759 mmHg 52%
    22:00 -3°C° 0 mm 2 m/S 759 mmHg 56%
    23:00 -3°C° 0 mm 2 m/S 759 mmHg 60%
    Mehr zeigen